N4WIB Weather Reports


Display with metric or nautical units.
time (UTC)temp
F
wind
direction
speed
MPH
gust
MPH
rain 1hr
in
rain 24hr
in
rain mn
in
humidity
%
barometer
mb
20260505101558 56 253 0.0 0.0 0.00 0.00 0.00 60 1012.8
20260505100055 56 253 0.0 0.0 0.00 0.00 0.00 59 1012.8
20260505094559 57 253 0.0 0.0 0.00 0.00 0.00 58 1012.9
20260505093054 58 253 0.0 0.0 0.00 0.00 0.00 57 1013.0
20260505091545 59 253 0.0 0.0 0.00 0.00 0.00 56 1013.0
20260505090041 59 252 0.0 0.0 0.00 0.00 0.00 54 1012.8
20260505084539 60 252 0.0 0.0 0.00 0.00 0.00 52 1012.5
20260505083045 61 252 0.0 0.0 0.00 0.00 0.00 51 1012.3
20260505081535 61 252 0.0 0.0 0.00 0.00 0.00 51 1012.3
20260505080034 62 221 0.0 3.0 0.00 0.00 0.00 50 1012.2
20260505074533 62 234 0.0 3.0 0.00 0.00 0.00 49 1012.2
20260505073032 63 253 0.0 6.0 0.00 0.00 0.00 48 1012.2
20260505071533 63 211 0.0 0.0 0.00 0.00 0.00 49 1012.3
20260505070030 63 235 0.0 4.0 0.00 0.00 0.00 48 1012.3
20260505064529 63 259 0.0 4.0 0.00 0.00 0.00 48 1012.4
20260505063029 63 211 0.0 1.0 0.00 0.00 0.00 49 1012.3
20260505061534 63 238 0.0 2.0 0.00 0.00 0.00 49 1012.3
20260505060029 63 323 0.0 8.0 0.00 0.00 0.00 50 1012.2
20260505054540 62 227 0.0 5.0 0.00 0.00 0.00 51 1012.4
20260505053027 63 215 0.0 3.0 0.00 0.00 0.00 52 1012.4
20260505051525 62 259 0.0 3.0 0.00 0.00 0.00 52 1012.2
20260505041521 63 246 0.0 0.0 0.00 0.00 0.00 53 1012.1
20260505040035 63 247 0.0 0.0 0.00 0.00 0.00 52 1012.2
20260505034525 64 247 0.0 0.0 0.00 0.00 0.00 50 1012.2
20260505033017 65 247 0.0 0.0 0.00 0.00 0.00 49 1012.1
20260505031516 65 247 0.0 0.0 0.00 0.00 0.00 47 1012.3
20260505030017 66 248 0.0 0.0 0.00 0.00 0.00 46 1012.3
20260505024515 67 224 0.0 1.0 0.00 0.00 0.00 45 1012.4
20260505023014 67 238 0.0 0.0 0.00 0.00 0.00 44 1012.4
20260505021514 68 280 0.0 0.0 0.00 0.00 0.00 44 1012.4
20260505020014 68 272 0.0 0.0 0.00 0.00 0.00 43 1012.2
20260505014515 69 259 1.0 8.0 0.00 0.00 0.00 43 1012.2
20260505013012 69 235 0.0 0.0 0.00 0.00 0.00 44 1012.2
20260505011511 70 236 0.0 3.0 0.00 0.00 0.00 44 1012.0
20260505010010 70 211 0.0 5.0 0.00 0.00 0.00 43 1011.9
20260505004515 71 236 0.0 0.0 0.00 0.00 0.00 41 1011.7
20260505003010 72 266 0.0 1.0 0.00 0.00 0.00 40 1011.6
20260505001510 73 241 0.0 5.0 0.00 0.00 0.00 37 1011.6
20260505000009 73 205 0.0 4.0 0.00 0.00 0.00 37 1011.6
20260504234511 74 273 0.0 1.0 0.00 0.00 0.00 38 1011.5
20260504233008 74 213 0.0 0.0 0.00 0.00 0.00 38 1011.4
20260504231508 74 213 0.0 0.0 0.00 0.00 0.00 37 1011.4
20260504230007 74 223 0.0 0.0 0.00 0.00 0.00 37 1011.4
20260504224507 75 209 0.0 6.0 0.00 0.00 0.00 35 1011.5
20260504223009 75 231 0.0 5.0 0.00 0.00 0.00 33 1011.5
20260504221508 76 224 0.0 10.0 0.00 0.00 0.00 30 1011.5
20260504220014 77 247 1.0 10.0 0.00 0.00 0.00 29 1011.5
20260504214504 77 248 1.0 6.0 0.00 0.00 0.00 31 1011.7
20260504213003 77 321 0.0 6.0 0.00 0.00 0.00 32 1011.7
20260504211502 78 245 0.0 6.0 0.00 0.00 0.00 35 1011.9
20260504210106 77 183 0.0 8.0 0.00 0.00 0.00 34 1011.9
20260504204604 77 233 0.0 4.0 0.00 0.00 0.00 37 1012.1
20260504203057 77 164 0.0 3.0 0.00 0.00 0.00 37 1012.3
20260504201553 76 223 1.0 6.0 0.00 0.00 0.00 36 1012.4
20260504200053 76 308 0.0 7.0 0.00 0.00 0.00 37 1012.7
20260504194553 76 134 1.0 12.0 0.00 0.00 0.00 39 1012.8
20260504193100 77 287 0.0 7.0 0.00 0.00 0.00 38 1013.1
20260504191546 75 273 2.0 6.0 0.00 0.00 0.00 36 1013.3
20260504190051 76 181 0.0 3.0 0.00 0.00 0.00 38 1013.5
20260504184543 74 289 0.0 8.0 0.00 0.00 0.00 44 1013.8
20260504183054 76 215 0.0 4.0 0.00 0.00 0.00 38 1014.1
20260504181538 76 239 1.0 8.0 0.00 0.00 0.00 39 1014.2
20260504180054 74 197 2.0 11.0 0.00 0.00 0.00 36 1014.4
20260504174536 74 253 0.0 13.0 0.00 0.00 0.00 36 1014.5
20260504173032 74 267 0.0 8.0 0.00 0.00 0.00 40 1014.7
20260504171530 74 267 0.0 6.0 0.00 0.00 0.00 38 1014.9